Location: Arthez
(43.0833°N, 0.2500°W)
Time: 07:05:30
(UTC+00:00)

Cosmos 304 Rocket - Pass Details

Date: 05 June 2022
Orbit: 679 x 686 km, 74.0° (Epoch: 03 July)

Event Time Altitude Azimuth Distance (km) Brightness Sun altitude
Exits shadow 23:49:32 26° 259° (W) 1,341 5.1 -24.2°
Maximum altitude 23:51:14 33° 298° (WNW) 1,142 5.1 -24.3°
Drops below altitude 10° 23:55:36 10° 3° (N) 2,143 7.4 -24.3°
Sets 23:58:07 0° 13° (NNE) 3,062 8.4 -24.3°
